Location: Unspecified
(0.0000°N, 0.0000°E)
Time: 07:01:11
(UTC+00:00)

Transit 2A - Pass Details

Date: 30 May 2019
Orbit: 598 x 960 km, 66.7° (Epoch: 15 September)

Event Time Altitude Azimuth Distance (km) Brightness Sun altitude
Rises 15:33:29 0° 357° (N) 3,207 9.6 33.1°
Reaches altitude 10° 15:36:12 10° 7° (N) 2,220 8.7 32.5°
Maximum altitude 15:40:36 31° 69° (ENE) 1,197 6.9 31.5°
Drops below altitude 10° 15:44:41 10° 131° (SE) 2,048 7.8 30.6°
Sets 15:47:05 0° 141° (SE) 2,918 8.5 30.0°
